Location: Unspecified
(48.8656°N, 0.0000°E)
Time: 19:39:22
(UTC+00:00)

SR - Pass Details

Date: 02 July 2019
Orbit: 580 x 876 km, 66.7° (Epoch: 19 July)

Event Time Altitude Azimuth Distance (km) Brightness Sun altitude
Rises 06:51:35 0° 326° (NW) 2,944 ? 24.8°
Reaches altitude 10° 06:55:19 10° 358° (N) 2,099 ? 25.4°
Maximum altitude 06:57:12 12° 21° (NNE) 1,992 ? 25.7°
Drops below altitude 10° 06:59:08 10° 45° (NE) 2,171 ? 26.0°
Sets 07:03:10 0° 75° (ENE) 3,171 ? 26.7°
